Location: Unspecified
(0.0000°N, 0.0000°E)
Time: 22:58:16
(UTC+00:00)

Vanguard 2 - Visible Passes

Search period start: 12 December 2018 00:00
Search period end: 22 December 2018 00:00
Orbit: 553 x 2939 km, 32.9° (Epoch: 12 December)

Date Brightness Start Highest point End Pass type
(mag) Time Alt. Az. Time Alt. Az. Time Alt. Az.
12 Dec 11.6 01:08:26 14° ENE 01:08:26 14° ENE 01:11:22 10° ENE visible
12 Dec 10.4 03:09:52 43° N 03:14:47 52° NE 03:31:59 10° ESE visible
12 Dec 10.5 05:11:17 11° WNW 05:28:00 72° SW 05:45:00 10° SE visible
13 Dec 11.3 01:25:32 21° ENE 01:25:32 21° ENE 01:32:38 10° E visible
13 Dec 10.2 03:26:58 45° NNW 03:33:04 66° NE 03:50:55 10° ESE visible
14 Dec 11.0 01:42:37 30° ENE 01:42:37 30° ENE 01:53:08 10° E visible
14 Dec 10.2 03:44:02 43° NW 03:51:20 82° NE 04:09:31 10° ESE visible
15 Dec 10.6 01:59:40 41° ENE 01:59:40 41° ENE 02:12:59 10° ESE visible
15 Dec 10.2 04:01:06 36° WNW 04:09:39 81° SW 04:27:49 10° SE visible
16 Dec 10.2 02:16:42 55° NE 02:16:42 55° NE 02:32:18 10° ESE visible
16 Dec 10.4 04:18:08 29° WNW 04:28:03 66° SW 04:45:54 10° SE visible
17 Dec 11.7 00:32:17 11° E 00:32:17 11° E 00:32:51 10° E visible
17 Dec 9.9 02:33:42 71° NE 02:33:42 71° NE 02:51:10 10° ESE visible
17 Dec 10.6 04:35:08 21° W 04:46:36 53° SSW 05:03:48 10° SE visible
18 Dec 11.4 00:49:15 18° E 00:49:15 18° E 00:53:14 10° E visible
18 Dec 9.7 02:50:40 82° NW 02:51:44 89° NE 03:09:42 10° SE visible
18 Dec 10.9 04:52:05 13° W 05:05:19 42° SSW 05:21:37 10° SE visible
19 Dec 11.1 01:06:12 26° E 01:06:12 26° E 01:12:57 10° ESE visible
19 Dec 9.8 03:07:36 65° W 03:10:03 74° SW 03:27:58 10° SE visible
19 Dec 11.2 05:10:25 10° W 05:24:16 33° SSW 05:39:22 10° SSE visible
20 Dec 10.7 01:23:05 36° E 01:23:05 36° E 01:32:09 10° ESE visible
20 Dec 10.0 03:24:29 48° WSW 03:28:32 58° SSW 03:46:01 10° SE visible
20 Dec 11.4 05:30:29 10° WSW 05:43:27 27° SSW 05:57:10 10° SSE visible
21 Dec 10.4 01:39:57 47° ESE 01:39:57 47° ESE 01:50:55 10° ESE visible
21 Dec 10.4 03:41:21 34° WSW 03:47:13 46° SSW 04:03:56 10° SE visible
